User: anonymous   Login
Location: Champs
(48.8539°N, 2.6040°E)
Time: 18:43:02
(UTC+00:00)
Language:

ERS-1 Rocket - Orbit

View from above orbital plane
View from above orbital plane
View from above satellite
View from above satellite

Ground track
Ground track

The orbit data is extracted from the following two-line orbital elements,

1 21610U 91050F   22222.83664700  .00000129  00000-0  53413-4 0  9991
2 21610  98.3783 291.2813 0004350  72.2856 287.8808 14.41089997630932
Epoch (UTC): 10 August 2022 20:04:46
Eccentricity: 0.0004350
inclination: 98.3783°
perigee height: 752 km
apogee height: 758 km
right ascension of ascending node: 291.2813°
argument of perigee: 72.2856°
revolutions per day: 14.41089997
mean anomaly at epoch: 287.8808°
orbit number at epoch: 63093

The dashed part of the orbit path shows where the satellite is in the earth's shadow,  

DLR